Regional Weather Roundup
Issued by NWS New Orleans/Baton Rouge, LA

Home | Current Version | Previous Version | Graphics & Text | Print | Product List | Glossary On
Versions: 1 2 3 4 5 6 7 8 9 10 11 12 13 14 15 16 17 18 19 20 21 22 23 24 25 26 27 28 29 30 31 32 33 34 35 36 37 38 39 40 41 42 43 44 45 46 47 48 49 50
556
ASUS44 KLIX 230901
RWRLIX
NEW ORLEANS REGIONAL WEATHER ROUNDUP
NATIONAL WEATHER SERVICE NEW ORLEANS LA
400 AM CDT THU OCT 23 2014

NOTE: "FAIR" INDICATES FEW OR NO CLOUDS BELOW 12,000 FEET WITH NO
      SIGNIFICANT WEATHER AND/OR OBSTRUCTIONS TO VISIBILITY.
      SKY/WX - SKY CONDITION AND SIGNIFICANT WEATHER.
      TMP - AIR TEMPERATURE.     DP    - DEWPOINT TEMPERATURE.
      RH  - RELATIVE HUMIDITY.   PRES  - PRESSURE.
      HI  - HEAT INDEX.          WCI   - WIND CHILL INDEX.

*  THESE STATIONS ARE NOT NWS OR FAA STATIONS AND ARE NOT UNDER
   NWS QUALITY CONTROL.

LAZ038-040-048-061>063-065>067-069-231000-
SOUTHEAST LOUISIANA

CITY           SKY/WX    TMP DP  RH WIND       PRES   REMARKS
N.O. AUDUBON   NOT AVBL
N.O. INTL ARPT CLEAR     64  49  57 E12       30.05F
N.O. LAKEFRONT LGT RAIN  65  49  56 E22       30.06S
N.O. DOWNTOWN*   N/A     63  45  51 NE6       30.07S
SLIDELL        CLEAR     49  45  86 N6        30.07S
BATON ROUGE    CLEAR     52  48  86 NE5       30.08F
BOOTHVILLE     CLEAR     70  55  59 NE9       30.03S
BELLE CHASSE   CLEAR     59  51  75 NE6       30.06R
BOGALUSA*        N/A     46  43  88 CALM      30.10S
NEW ROADS*       N/A     55  47  75 NE6       30.08F
GONZALES*        N/A     55  52  89 CALM      30.07F
HAMMOND*       NOT AVBL
HOUMA*         CLEAR     55  51  89 N6        30.05S
PORT FOURCHON* SUNNY     70  57  64 NE12      30.06S

$$

MSZ070-080>082-231000-
SOUTHERN MISSISSIPPI

CITY           SKY/WX    TMP DP  RH WIND       PRES   REMARKS
MCCOMB         CLEAR     53  45  74 NE6       30.09F
GULFPORT       CLEAR     53  45  74 NE6       30.06S
BILOXI         CLEAR     53  46  78 NE7       30.06F
PASCAGOULA     CLEAR     42  42 100 CALM      30.07S

$$

COASTAL OBSERVATIONS
LAKE AND NEARSHORE STATIONS

STATION/POSITION TIME  TEMP    WIND        PRES    WAVE
                       AIR SEA DIR/SP/G            HT/PER
                 (UTC) (F)     (DEG/KT/KT) (MB)    (FT/S)
PASCAGOULA       0800   55      10/  8/ 10 1017.3
WAVELAND YACHT   0800   59      40/ 10/ 13 1017.2
GRAND ISLE       0800   69 74   60/ 10/ 16 1017.1
SOUTHWEST PASS   0800   72 82              1016.5
NEW CANAL        0800   66 71   60/ 19/ 23 1017.9
SHELL BEACH      0800   67 67   50/ 18/ 20 1017.2

OFFSHORE STATIONS

STATION/POSITION TIME  TEMP    WIND        PRES    WAVE
                       AIR SEA DIR/SP/G            HT/PER
                 (UTC) (F)     (DEG/KT/KT) (MB)    (FT/S)
64 S DAUPHIN ISL 0844   72 78   50/ 16/ 19 1016.5    5/ 6

$$




USA.gov is the U.S. government's official web portal to all federal, state and local government web resources and services.